Regional Weather Roundup
Issued by NWS Nashville, TN

Home | Current Version | Previous Version | Text Only | Print | Product List | Glossary On
Versions: 1 2 3 4 5 6 7 8 9 10 11 12 13 14 15 16 17 18 19 20 21 22 23 24 25 26 27 28 29 30 31 32 33 34 35 36 37 38 39 40 41 42 43 44 45 46 47 48 49
000
ASUS44 KOHX 240810
RWROHX
MIDDLE TENNESSEE HOURLY WEATHER ROUNDUP
NATIONAL WEATHER SERVICE NASHVILLE TN
300 AM CDT TUE MAY 24 2016

NOTE: "FAIR" INDICATES FEW OR NO CLOUDS BELOW 12,000 FEET WITH
NO SIGNIFICANT WEATHER AND/OR OBSTRUCTIONS TO VISIBILITY.

* THESE REPORTS ARE NOT UNDER NWS QUALITY CONTROL AND MAY NOT
  REPORT WEATHER SUCH AS PRECIPITATION AND FOG.


TNZ005>011-023>034-057-059-062>066-078-080-240900
...NORTHERN MIDDLE TENNESSEE...

CITY           SKY/WX    TMP DP  RH WIND       PRES   REMARKS
CLARKSVILLE    PTCLDY    57  52  83 CALM      30.02R
CROSSVILLE     CLEAR     52  46  80 CALM      30.07S
DICKSON        PTCLDY    55  52  88 CALM      30.03R
LEBANON        CLEAR     52  50  93 CALM      30.01R
NASHVILLE      CLEAR     57  52  83 S3        30.03R
SMYRNA         CLEAR     54  53  96 CALM      30.04R
SPARTA         CLEAR     46  46 100 CALM      30.03R
$$
TNZ056-058-060-061-075>077-079-093>097-240900
...SOUTHERN MIDDLE TENNESSEE...

CITY           SKY/WX    TMP DP  RH WIND       PRES   REMARKS
COLUMBIA       CLEAR    N/A N/A N/A CALM      30.02R
FAYETTEVILLE   PTCLDY    59  52  77 CALM      30.04R
LEWISBURG      CLEAR     51  51 100 CALM      30.03R
MCMINNVILLE    CLEAR     50  50 100 CALM      30.04S
SHELBYVILLE    CLEAR     55  50  82 E5        30.04S
TULLAHOMA      CLEAR     52  50  93 CALM      30.05R
WINCHESTER     CLEAR     54  48  82 CALM      30.04S
$$


...KEY TO REMARKS...
VSB - VISIBILITY IN MILES
WCI - WIND CHILL INDEX
HX  - HEAT INDEX




USA.gov is the U.S. government's official web portal to all federal, state and local government web resources and services.